#timestamp,LO_Frequency,Hit,StdDev 
1673625615.5,286047006.1,Y
1673625635.4,286047003.2,P
1673625655.2,286047002.7,N
1673625675.0,286047000.4,N
1673625675.9,286047000.4,N
1673625695.8,286047000.9,N
1673625715.6,286047000.2,N
1673625735.4,286046999.9,N
1673625755.3,286047000.2,N
1673625775.1,286046999.7,N
1673625776.0,286046999.7,N
1673625795.8,286047000.5,N
1673625815.7,286047002.7,N
1673625835.5,286047001.5,N
1673625855.3,286047002.3,N
1673625875.2,286047002.2,N
1673625895.9,286047002.7,N
1673625915.7,286047002.5,N
1673625935.6,286047002.3,N
1673625955.4,286047002.1,N
1673625975.2,286047002.7,N
1673625995.1,286047003.7,Y
1673625996.0,286047003.7,P
1673626015.8,286046999.8,N
1673626035.6,286047000.4,N
1673626055.5,286047000.5,N
1673626075.3,286047000.7,N
1673626095.1,286046998.1,N
1673626115.9,286046998.2,N
1673626135.7,286047001.2,N
1673626155.5,286047000.8,N
1673626175.4,286047000.8,N
1673626195.2,286046998.3,N
1673626215.0,286046999.5,N
1673626215.9,286046999.5,N
1673626235.8,286046999.6,N
1673626255.6,286046999.5,N
1673626275.4,286046999.6,N
1673626295.3,286046999.1,N
1673626315.1,286046998.4,N
1673626316.0,286046998.4,N
1673626335.8,286046998.8,N
1673626355.7,286046998.7,N
1673626375.5,286046997.0,N
1673626395.3,286046999.0,N
1673626415.1,286046997.3,N
1673626435.9,286046997.1,N
1673626455.7,286046997.7,N
1673626475.5,286046997.2,N
1673626495.4,286046996.7,N
1673626515.2,286046997.5,N
1673626535.0,286046997.5,N
1673626535.9,286046997.5,N
1673626555.8,286046997.8,N
1673626575.6,286046996.8,N
1673626595.4,286046998.0,N
1673626615.3,286046996.7,N
1673626635.1,286046999.5,N
1673626655.8,286046997.7,N
1673626675.7,286046999.2,N
1673626695.5,286046997.8,N
1673626715.3,286046996.9,N
1673626735.2,286046996.7,Y
1673626755.0,286046998.6,P
1673626755.9,286046998.6,P
1673626775.7,286046998.2,P
1673626795.6,286046998.7,Y
1673626815.4,286047000.1,P
1673626835.2,286047000.7,N
1673626855.1,286046998.4,N
1673626856.0,286046998.4,N
1673626875.8,286047000.5,N
1673626895.6,286047000.3,N
1673626915.5,286047001.1,N
1673626935.3,286047000.8,N
1673626955.1,286047000.5,N
1673626975.9,286047000.8,N
1673626995.7,286047001.1,N
1673627015.5,286046999.9,N
1673627035.4,286047002.4,N
1673627055.2,286047002.8,N
1673627075.0,286046999.8,N
1673627075.9,286046999.8,N
1673627095.8,286047002.8,N
1673627115.6,286047000.1,N
1673627135.4,286047000.3,N
1673627155.3,286047002.5,N
1673627175.1,286047002.4,N
1673627176.0,286047002.4,N
1673627195.8,286047002.1,N
1673627215.7,286047001.8,N
1673627235.5,286047002.1,N
1673627255.3,286047001.8,N
1673627275.2,286047001.3,N
1673627295.9,286047001.4,N
1673627315.7,286047002.4,N
1673627335.6,286047001.7,N
1673627355.4,286047000.1,N
1673627375.2,286046999.9,N
1673627395.1,286047002.4,N
1673627396.0,286047002.4,N
1673627415.8,286047002.8,N
1673627435.6,286047001.5,N
1673627455.5,286047002.3,N
1673627475.3,286047001.5,N
1673627495.1,286047004.3,Y
1673627515.9,286047004.4,P
1673627535.7,286047001.8,N
1673627555.5,286047003.9,N
1673627575.4,286047001.8,N
1673627595.2,286047004.0,Y
1673627615.0,286047000.7,P
1673627615.9,286047000.7,N
1673627635.8,286047000.6,N
1673627655.6,286046999.7,N
1673627675.4,286047000.1,N
1673627695.3,286047000.5,N
1673627715.1,286047002.8,Y
1673627716.0,286047002.8,P
1673627735.8,286046998.2,N
1673627755.7,286047001.0,N
1673627775.5,286047000.9,N
1673627795.3,286047000.5,N
1673627815.2,286047000.7,N
1673627835.9,286047000.7,N
1673627855.7,286046998.1,N
1673627875.6,286047000.7,N
1673627895.4,286047002.5,N
1673627915.2,286047001.5,N
1673627935.1,286047002.0,N
1673627936.0,286047002.0,N
1673627955.8,286047000.0,N
1673627975.6,286047002.3,N
1673627995.5,286046999.8,N
1673628015.3,286047003.1,N
1673628035.1,286047003.0,N
1673628055.8,286047001.3,N
1673628075.7,286047001.4,N
1673628095.5,286047003.2,N
1673628115.4,286047005.8,Y
1673628135.2,286047001.7,P
1673628155.0,286047002.0,P
1673628155.9,286047002.0,P
1673628175.8,286047004.1,Y
1673628195.6,286047002.5,P
1673628215.4,286046999.7,N
1673628235.3,286047002.7,N
1673628255.1,286047001.4,N
1673628256.0,286047001.4,N
1673628275.8,286047003.9,Y
1673628295.7,286047004.0,P
1673628315.5,286047001.9,N
1673628335.3,286047004.4,P
1673628355.2,286047004.1,Y
1673628375.9,286047000.7,P
1673628395.7,286046998.1,N
1673628415.6,286047001.1,N
1673628435.4,286046998.4,N
1673628455.2,286047000.6,N
1673628475.0,286046998.4,N
1673628476.0,286046998.4,N
1673628495.8,286047001.2,N
1673628515.6,286047000.4,N
1673628535.4,286047001.1,N
1673628555.3,286047002.8,N
1673628575.1,286046999.8,N
1673628595.8,286047004.0,N
1673628615.7,286047003.8,N
1673628635.5,286047003.9,N
1673628655.3,286047001.6,N
1673628675.2,286047003.3,N
1673628695.0,286047003.3,N
1673628695.9,286047003.3,N
1673628715.7,286047005.1,N
1673628735.6,286047005.9,N
1673628755.4,286047006.0,N
1673628775.2,286047003.0,N
1673628795.1,286047003.7,N
1673628796.0,286047003.7,N
1673628815.8,286047003.3,N
1673628835.6,286047003.5,N
1673628855.5,286047003.0,N
1673628875.3,286047004.7,N
1673628895.1,286047007.0,Y
1673628915.9,286047003.3,P
1673628935.7,286047004.8,P
1673628955.5,286047005.6,P
1673628975.4,286047004.9,Y
1673628995.2,286047000.1,P
1673629015.0,286046999.8,N
1673629016.0,286046999.8,N
1673629035.8,286047002.5,N
1673629055.6,286047004.3,N
1673629075.4,286047001.8,N
1673629095.3,286047001.8,N
1673629115.1,286047004.2,N
1673629135.8,286047003.8,N
1673629155.7,286047004.1,N
1673629175.5,286047004.1,N
1673629195.3,286047004.3,N
